Precipitable_Water
0.67 0.71 0.82 0.95 1.11 1.28 1.34 1.41 1.41 1.39 1.40 1.40 1.41 1.39 1.34 1.31 1.26 1.27 1.24 1.13 1.07 1.03 1.01 1.00 1.02 1.04 1.03 1.01 0.96 0.89 0.73 0.65
0.68 0.68 0.76 0.85 0.96 1.08 1.26 1.37 1.36 1.39 1.34 1.32 1.29 1.24 1.24 1.26 1.24 1.27 1.24 1.14 1.09 1.06 1.04 1.03 1.03 1.00 1.03 1.03 0.97 0.92 0.81 0.78
0.66 0.69 0.67 0.74 0.83 0.94 1.05 1.17 1.33 1.36 1.36 1.36 1.31 1.27 1.24 1.24 1.22 1.23 1.23 1.14 1.10 1.08 1.05 1.05 1.06 1.03 1.04 1.02 0.93 0.86 0.88 0.84
0.63 0.67 0.66 0.65 0.72 0.82 0.91 1.04 1.18 1.32 1.34 1.34 1.29 1.27 1.26 1.21 1.18 1.18 1.18 1.15 1.13 1.11 1.10 1.14 1.14 1.10 1.01 1.01 0.95 0.82 0.79 0.86
0.65 0.63 0.66 0.63 0.64 0.76 0.81 0.91 1.07 1.20 1.27 1.27 1.21 1.12 1.09 1.14 1.08 1.11 1.13 1.20 1.19 1.16 1.17 1.16 1.11 1.14 1.08 1.04 1.02 0.90 0.86 0.79
0.66 0.61 0.63 0.69 0.64 0.66 0.76 0.81 0.89 1.04 1.12 1.10 1.12 1.04 1.02 1.02 0.97 0.94 0.96 1.07 1.07 1.10 1.08 1.09 1.08 1.07 1.06 1.00 0.95 0.94 0.90 0.87
0.72 0.73 0.68 0.67 0.68 0.62 0.68 0.73 0.77 0.87 0.95 0.99 1.01 0.99 0.95 0.90 0.91 0.86 0.92 1.02 0.98 1.01 1.01 1.00 1.00 0.97 0.93 0.96 0.98 1.01 0.98 0.97
0.70 0.71 0.66 0.66 0.67 0.63 0.63 0.68 0.69 0.78 0.83 0.87 0.92 0.93 0.91 0.86 0.85 0.85 0.85 0.89 0.91 0.91 0.94 0.93 0.92 0.93 0.89 0.91 0.95 0.98 1.00 0.97
0.65 0.70 0.74 0.71 0.68 0.68 0.65 0.63 0.66 0.73 0.78 0.81 0.86 0.89 0.90 0.89 0.89 0.86 0.86 0.89 0.89 0.92 0.90 0.91 0.91 0.91 0.92 0.93 0.92 0.96 1.01 1.02
0.59 0.69 0.73 0.76 0.74 0.70 0.65 0.64 0.63 0.67 0.72 0.76 0.79 0.83 0.83 0.83 0.88 0.90 0.90 0.92 0.93 0.94 0.92 0.90 0.92 0.93 0.94 0.96 0.93 0.95 1.02 1.04
0.58 0.66 0.70 0.76 0.80 0.81 0.81 0.76 0.65 0.64 0.69 0.72 0.74 0.77 0.81 0.85 0.87 0.86 0.88 0.91 0.93 0.95 0.96 0.96 0.96 0.98 0.98 1.00 0.99 1.03 1.04 1.08
0.60 0.63 0.70 0.75 0.82 0.83 0.82 0.83 0.82 0.83 0.78 0.72 0.73 0.75 0.79 0.82 0.81 0.83 0.84 0.87 0.89 0.89 0.89 0.90 0.89 0.90 0.93 0.96 0.99 1.00 1.08 1.15
0.58 0.63 0.68 0.70 0.74 0.78 0.76 0.80 0.81 0.84 0.88 0.90 0.87 0.87 0.86 0.86 0.88 0.90 0.94 0.93 0.94 1.00 1.01 0.97 0.99 0.97 0.98 0.96 0.97 1.12 1.19 1.15
0.55 0.59 0.60 0.64 0.67 0.71 0.74 0.79 0.82 0.87 0.89 0.90 0.92 0.93 0.93 0.91 0.89 0.85 0.89 0.92 0.92 1.00 1.06 1.02 1.08 1.05 1.03 1.07 1.12 1.14 1.19 1.15
0.47 0.54 0.59 0.62 0.68 0.70 0.72 0.77 0.81 0.82 0.85 0.86 0.87 0.87 0.86 0.83 0.87 0.88 0.88 0.89 0.87 0.94 1.04 1.06 1.06 1.10 1.09 1.12 1.14 1.14 1.15 1.09
0.45 0.47 0.53 0.59 0.63 0.66 0.73 0.73 0.74 0.72 0.69 0.71 0.69 0.73 0.75 0.76 0.77 0.81 0.85 0.87 0.88 0.93 1.00 1.09 1.10 1.12 1.12 1.11 1.15 1.11 1.09 1.07
0.50 0.49 0.53 0.57 0.60 0.63 0.66 0.69 0.72 0.74 0.70 0.67 0.72 0.71 0.75 0.75 0.76 0.78 0.82 0.85 0.86 0.93 0.97 1.06 1.10 1.14 1.16 1.16 1.17 1.17 1.13 1.02
0.53 0.53 0.52 0.53 0.56 0.60 0.62 0.66 0.75 0.75 0.70 0.71 0.71 0.74 0.73 0.75 0.80 0.82 0.80 0.86 0.92 0.95 1.01 1.07 1.08 1.12 1.15 1.16 1.15 1.12 1.09 1.06
0.55 0.55 0.55 0.57 0.60 0.63 0.65 0.70 0.72 0.75 0.73 0.72 0.75 0.76 0.75 0.79 0.84 0.83 0.84 0.91 0.94 0.97 1.02 1.05 1.06 1.08 1.11 1.08 1.05 1.05 1.01 0.98
Wind_Speed
5 4 3 2 3 10 15 17 17 17 19 23 23 23 28 32 33 30 29 28 27 25 23 22 21 18 17 16 15 16 17 17
6 5 3 2 2 5 12 18 16 20 22 22 23 24 26 29 31 30 30 29 28 27 25 24 22 20 19 18 17 16 17 18
8 7 5 4 4 5 9 13 18 21 23 22 23 22 26 27 29 29 31 30 29 28 26 24 23 22 21 19 18 16 17 18
10 9 7 6 6 7 8 11 15 18 22 22 23 22 24 27 29 28 29 30 29 29 27 25 24 23 22 20 19 18 18 19
11 11 10 8 7 7 8 10 13 18 19 20 23 22 23 27 28 29 29 29 28 29 27 26 25 24 22 21 21 21 21 22
13 12 12 10 10 9 9 10 12 15 18 20 22 22 21 22 24 26 28 28 28 28 27 26 24 24 24 24 23 24 24 24
14 13 13 12 12 12 11 11 12 14 16 19 20 22 21 22 22 24 25 25 27 27 27 28 27 26 26 26 26 26 26 27
15 15 15 15 14 14 13 13 13 14 16 18 20 21 21 22 22 23 24 25 26 27 27 28 28 29 29 28 28 28 28 30
15 17 18 17 16 16 16 15 15 15 16 17 19 20 20 21 22 23 24 25 26 26 28 29 31 31 32 32 31 30 30 32
16 18 19 19 18 18 18 17 18 18 18 18 19 20 21 22 22 23 24 26 27 28 30 31 32 33 33 34 35 34 34 35
16 18 20 20 21 21 20 20 20 20 20 20 20 21 22 23 23 24 24 26 28 29 31 33 34 35 36 36 36 36 37 39
16 17 19 20 20 21 22 23 22 22 23 23 23 23 24 24 25 26 27 28 30 30 35 34 35 36 36 36 37 39 41 42
15 18 19 20 20 21 21 23 23 24 24 24 25 25 26 27 27 28 28 29 29 28 28 32 38 40 38 38 38 38 41 40
14 17 19 20 21 21 22 23 24 25 26 27 28 28 28 29 29 29 29 30 30 31 29 28 28 33 36 36 37 35 32 31
18 19 22 22 22 23 23 23 24 25 26 27 28 29 30 29 30 30 30 30 30 31 31 30 26 25 28 28 30 31 29 27
20 21 22 22 22 24 24 23 22 22 24 24 25 25 25 26 28 29 31 32 32 32 33 33 32 31 30 31 31 30 30 30
22 21 22 23 23 24 25 24 24 24 24 25 24 24 25 26 27 28 30 32 32 32 33 34 35 35 34 33 32 32 32 31
24 24 24 25 26 26 27 26 24 26 27 26 25 25 25 25 26 26 27 30 30 31 31 32 32 32 32 32 31 32 32 32
27 26 27 28 27 27 27 28 26 26 27 27 27 27 27 25 25 26 26 27 28 29 29 30 31 31 31 31 31 31 31 31
Wind_Direction
277 288 295 290 254 200 206 195 196 194 188 186 187 186 189 192 194 197 198 200 203 206 210 211 216 223 232 228 230 231 227 223
257 263 260 246 201 190 200 208 207 203 196 194 194 194 195 196 200 204 205 206 209 212 214 217 223 230 230 229 231 228 226 223
244 245 243 233 215 197 196 201 206 204 199 198 194 197 200 201 203 206 208 211 213 216 219 223 226 230 226 224 226 228 228 225
236 233 234 226 215 201 196 196 196 194 203 205 204 205 207 207 208 211 213 214 217 218 222 223 226 224 223 225 228 230 231 231
232 229 227 221 211 200 193 190 195 200 200 202 203 205 206 209 212 213 212 215 217 217 219 222 223 225 225 230 235 238 238 239
228 226 220 216 209 201 195 190 190 193 197 200 202 203 202 202 206 208 212 216 217 216 220 222 226 226 231 236 240 243 245 246
229 226 220 216 213 209 206 199 196 195 196 199 200 201 203 204 206 208 213 216 218 220 224 227 230 233 237 241 244 248 250 251
227 223 221 217 215 213 210 207 204 202 201 202 205 207 208 210 211 214 216 217 221 224 228 232 235 239 242 245 248 252 255 256
232 226 222 219 218 217 216 213 212 210 209 210 210 211 214 216 219 221 222 225 228 232 236 239 241 245 245 247 250 254 258 260
237 229 223 221 220 219 218 219 221 220 218 217 216 218 220 222 225 228 231 233 237 241 243 245 247 247 248 250 252 256 260 263
238 229 224 225 227 226 225 226 226 224 224 224 224 225 227 230 232 233 237 240 243 247 249 248 250 250 251 253 254 257 264 266
235 231 226 227 229 227 229 230 229 229 230 231 232 233 234 235 237 240 244 248 250 254 251 253 252 251 251 253 257 262 267 271
243 236 230 229 230 230 230 229 231 233 234 234 236 238 239 240 244 247 249 251 251 258 256 256 257 252 252 256 261 264 270 275
247 238 231 231 233 233 233 234 236 238 240 240 241 242 243 246 248 249 251 253 253 253 258 260 264 250 251 255 260 263 265 258
253 247 240 238 239 237 238 241 243 243 242 242 243 244 244 247 250 252 253 254 254 253 253 254 257 256 252 254 258 260 261 257
255 251 243 236 239 240 239 242 243 242 240 240 240 240 245 249 252 254 254 255 256 256 254 253 255 257 256 259 262 258 258 260
257 254 245 242 244 240 240 243 244 242 241 241 242 242 247 253 255 258 257 256 256 256 256 255 255 258 258 259 258 257 259 261
258 257 252 249 247 244 241 243 244 244 243 243 244 246 250 255 258 261 260 256 256 256 257 257 256 255 258 257 259 260 261 262
258 260 259 253 247 244 244 243 245 247 244 244 247 249 252 256 259 262 263 260 258 258 258 257 257 258 258 259 259 261 262 264